Regional Weather Roundup
Issued by NWS Wakefield, VA

Home | Current Version | Previous Version | Text Only | Print | Product List | Glossary On
Versions: 1 2 3 4 5 6 7 8 9 10 11 12 13 14 15 16 17 18 19 20 21 22 23 24 25 26 27 28 29 30 31 32 33 34 35 36 37 38 39 40 41 42 43 44 45 46 47 48 49 50
000
ASUS41 KAKQ 261616
RWRAKQ

REGIONAL WEATHER ROUNDUP
NATIONAL WEATHER SERVICE WAKEFIELD VA
1200 PM EDT MON JUN 26 2017

Note: "fair" indicates few or no clouds below 12,000 feet with no
significant weather and/or obstructions to visibility. * = Denotes
station may not report precipitation (e.g., rain,snow,etc.),
thunder or fog.

VAZ042-051-052>054-056-261700-
NORTHERN VIRGINIA

CITY           SKY/WX    TMP DP  RH WIND       PRES   REMARKS
WASH NATIONAL  MOSUNNY   80  44  27 NW10      30.09F
DULLES         MOSUNNY   78  43  28 NW12G18   30.09F
FORT BELVOIR   MOSUNNY   80  42  25 N5G20     30.09S
QUANTICO       MOSUNNY   82  45  27 NW12      30.09F
FREDERICKSBRG* SUNNY     79  52  38 SW6       30.08F
STAFFORD*      SUNNY     80  46  29 NW6       30.13F
WARRENTON      MOSUNNY   79  38  23 SW7       30.10S
CULPEPER*      MOSUNNY   79  51  37 NW3       30.10F
MANASSAS*      MOSUNNY   78  49  35 VRB7      30.10S
LEESBURG*      MOSUNNY   79  50  36 W10       30.10F
WINCHESTER     MOSUNNY   73  43  33 W6G16     30.09F
FRONT ROYAL*   PTSUNNY   75  46  35 W6G16     30.09F
LURAY*         MOSUNNY   75  46  35 W9        30.11S
$$

VAZ048-049-060>072-079>083-261700-
CENTRAL AND SOUTH CENTRAL VIRGINIA

CITY           SKY/WX    TMP DP  RH WIND       PRES   REMARKS
RICHMOND       MOSUNNY   79  54  41 CALM      30.10F
CHESTERFIELD*  FAIR      79  55  43 CALM      30.11
PETERSBURG*    SUNNY     79  51  37 CALM      30.11F
HANOVER        SUNNY     78  52  40 CALM      30.11F
TAPPAHANNOCK*  SUNNY     79  48  33 CALM      30.11S
QUINTON*       FAIR      78  56  47 W3        30.10F
CHARLOTTSVILLE MOSUNNY   79  46  31 VRB5      30.10F
GORDONSVILLE*  MOSUNNY   78  47  33 NW5       30.09F
ORANGE*        MOSUNNY   79  48  34 CALM      30.10F
LOUISA*        MOSUNNY   82  54  36 SE3       30.09F
BUMPASS*       FAIR      77  53  42 SW7       30.10F
FARMVILLE*     SUNNY     79  35  20 CALM      30.10S
CREWE*         FAIR      78  45  30 NE3       30.11F
FORT PICKETT*  FAIR      78  46  31 N3        30.11F
CHASE CITY*    FAIR      78  51  39 W5        30.12F
CLARKSVILLE*   FAIR      79  52  38 N5        30.12F
SOUTH HILL*    SUNNY     79  56  45 W5        30.17F
LAWRENCEVILLE* FAIR      79  56  46 S6        30.11F
EMPORIA*       MOSUNNY   79  52  38 W6        30.12F
$$

VAZ088>098-261700-
SOUTHEAST VIRGINIA

CITY           SKY/WX    TMP DP  RH WIND       PRES   REMARKS
NORFOLK        SUNNY     81  57  43 NE7       30.10S
VIRGINIA BEACH MOSUNNY   82  57  42 VRB3      30.09S
NORFOLK NAVAL  MOSUNNY   83  55  38 NE6       30.11F
WEST POINT*    SUNNY     80  53  40 W5        30.11F
SALUDA*        FAIR      78  57  48 CALM      30.10F
NEWPORT NEWS   SUNNY     81  55  40 E5        30.10F
LANGLEY AFB    SUNNY     79  57  46 NE8       30.10S
FORT EUSTIS    SUNNY     82  54  37 W5        30.08F
WILLIAMSBURG*  SUNNY     84  55  37 CALM      30.11F
HR EXEC AP*    FAIR      81  54  39 CALM      30.08S
FRANKLIN*      SUNNY     81  55  41 CALM      30.11F
US460-WAKEFLD  SUNNY     80  56  43 NE5       30.11F
$$

VAZ020-022-025-037-045-261700-
WEST CENTRAL AND SOUTHWEST VIRGINIA

CITY           SKY/WX    TMP DP  RH WIND       PRES   REMARKS
STAUNTON*      MOSUNNY   73  47  39 SW9       30.13F
WAYNESBORO*    SUNNY     72  47  40 W3G16     30.13F
HOT SPRINGS VA SUNNY     63  39  42 W12       30.21F
LYNCHBURG      SUNNY     77  46  33 VRB6      30.14S
DANVILLE       SUNNY     78  52  40 W8        30.14F
SOUTH BOSTON*  FAIR      79  49  34 W7        30.13S
MARTINSVILLE   SUNNY     77  47  34 NW8       30.17F
ROANOKE        MOSUNNY   74  45  35 NW10      30.16S
BLACKSBURG     MOSUNNY   71  48  44 W7        30.21F
DUBLIN*        CLOUDY    72  40  31 W8        30.20S
MARION*        MOSUNNY   71  49  45 W8G18     30.23S
HILLSVILLE*    CLOUDY    69  37  31 W14G20    30.21S
RICHLANDS*     FAIR      68  48  49 W9        30.22F
WISE*          MOSUNNY   70  50  49 CALM      30.24S
ABINGDON*      MOSUNNY   73  52  48 W8        30.21F
$$

MDZ021>025-VAZ099-100-261700-
SOUTHERN MARYLAND AND THE DELMARVA PENINSULA

CITY           SKY/WX    TMP DP  RH WIND       PRES   REMARKS
PATUXENT RIVER MOSUNNY   79  49  34 VRB3      30.08F
BAY BRIDGE APT SUNNY     79  45  29 W17       30.08S
LEONARDTOWN    SUNNY     77  48  36 CALM      30.10F
DOVER          SUNNY     78  55  43 W14G20    30.05F
GEORGETOWN     NOT AVBL
EASTON         MOSUNNY   81  48  32 W8        30.12S
CAMBRIDGE      SUNNY     79  46  31 NW9       30.09S
SALISBURY      SUNNY     80  52  37 N9        30.08F
OCEAN CITY     SUNNY     76  59  55 SE7       30.08F
WALLOPS ISLAND MOSUNNY   81  54  39 W6        30.08F
ACCOMACK*      SUNNY     81  52  36 NW3       30.09S
$$

NCZ012>017-030>032-261700-
NORTH CENTRAL AND EASTERN NORTH CAROLINA

CITY           SKY/WX    TMP DP  RH WIND       PRES   REMARKS
ROANOKE RAPIDS FAIR      81  54  39 W3        30.12F
RALEIGH        MOSUNNY   81  51  35 N8        30.14S
ELIZABETH CITY MOSUNNY   83  58  42 N6        30.10S
AHOSKIE*         N/A     78  53  41 CALM      30.12S
EDENTON*       MOSUNNY   83  55  38 CALM      30.11F
CURRITUCK*     MOSUNNY   81  57  43 E7        30.11S
KILL DEVIL HLS MOSUNNY   76  61  59 NE7       30.09F
MANTEO         MOSUNNY   78  58  49 NE10      30.11S
CAPE HATTERAS  NOT AVBL
TARBORO*       NOT AVBL
GOLDSBORO      CLOUDY    82  54  38 NE7       30.10F
WASHINGTON     MOSUNNY  N/A N/A N/A N8        30.11F
GREENVILLE     SUNNY     81  54  39 NE8       30.13S
NEW BERN       CLOUDY    80  60  50 NE10      30.12S
WILMINGTON     CLOUDY    81  58  45 NE14      30.11R
$$

VAZ048-261700-
ELSEWHERE

CITY           SKY/WX    TMP DP  RH WIND       PRES   REMARKS
HARRISBURG PA  NOT AVBL
BALTIMORE      PTSUNNY   77  45  32 W10       30.08S
ANNAPOLIS      SUNNY     76  45  33 W8        30.08S
ANDREWS AFB    MOSUNNY   79  41  25 W10G18    30.08F
PHILADELPHIA   MOSUNNY   79  39  23 W12       30.06S
HENDERSON NC   SUNNY     75  53  46 CALM      30.14S
GREENSBORO     MOSUNNY   78  48  34 N8        30.15S
ROCKY MOUNT    SUNNY     82  52  35 N7        30.12F
$$

VAZ100-261700-
MARINE

STATION/POSITION TIME  TEMP    WIND        PRES    WAVE   SWELL
                       AIR SEA DIR/SP/G            HT/PER HT/PER
                 (UTC) (F)     (DEG/KT/KT) (MB)    (FT/S) (FT/S)
BRANDYWINE LGT   1548          180/  9/  9   N/A
CAPE MAY NJ      1548   72 67  220/  7/  9 1018.3S
LEWES DE         1542   74 72   60/  5/  5 1018.4F
15NM E FENWICK I 1450   69 68  340/  4/  4 1019.1    2/ 7   2/ 7
OCEAN-CITY-INLET 1542   75 67  120/  5/  7 1019.0F
WACHAPREAGUE VA  1542   76 77  100/  6/  8 1018.8F
THOMAS POINT MD  1600   76 78  300/ 14/ 16   N/A
GOOSES REEF MD   1600   77 80   90/  2/  2 1019.6
COVE POINT MD    1542   75      60/  4/  7 1019.5F
SOLOMONS ISLAND  1542   76 78  360/  6/  8   N/A
BISHOPS HEAD MD  1542   77 80  280/  4/  5 1019.0F
PINEY POINT MD   1548          310/  6/  7   N/A
POTOMAC MD       1600   76 78  280/  2/  4 1018.1    0
CAMBRIDGE MD     1542   79 81              1019.6S
LEWISETTA VA     1542   76 80   70/  3/  5 1019.0F
RAPPAHANNOCK LGT 1548          320/  6/  9 1019.8F
STINGRAY PT      1600   76 79   80/  4/  6 1019.4    1/ 3
YORK RVR RNG VA  1542   76      CALM  /  1 1019.7F
YORKTOWN VA      1542   78 78   CALM  /  2 1019.0F
JAMESTOWN VA     1600   77 83  240/  4/  4   N/A     0
DOMINION TERM VA 1542   77     300/  5/  7 1019.5S
KIPTOPEKE VA     1548      76  330/ 11/ 13   N/A
CHES BAY BRIDGE  1542   75 75  360/  6/  8 1019.3S
CAPE HENRY VA    1542   76     340/  5/  7   N/A
WILLOUBY STN VA  1542   76      70/  6/  7 1019.3F
S CRANEY ISL VA  1542   78      20/  3/  5 1019.2F
CAPE HENRY BUOY  1530      74                N/A     2/ 8
1ST LANDING BUOY 1600   76 75              1019.2    1/ 3
CAPE CHARLES BUO 1521      72                N/A     1/ 8
64NM E OF VA BCH 1550   74 73   20/  8/ 10 1019.3R   2/ 8   2/ 8
DUCK PIER NC     1542   73 72   20/  8/  9 1019.0F
44100 DUCK FRF   1535      71                N/A     1/ 7
OREGON INLET NC  1548           10/  8/ 11   N/A
HATTERAS NC      1542   80 77   50/ 10/ 15 1018.9S
DIAMOND SHLS NC  1550   77 81   30/  6/  8 1018.8S   2/ 8   2/ 8
CAPE LOOKOUT NC  1600   78      60/  7/  8 1019.0R
$$



USA.gov is the U.S. government's official web portal to all federal, state and local government web resources and services.